Location: Canet
(43.3261°N, 5.3723°E)
Time: 19:22:08
(UTC+00:00)

Cosmos 405 - Pass Details

Date: 24 January 2021
Orbit: 447 x 462 km, 81.3° (Epoch: 08 March)

Event Time Altitude Azimuth Distance (km) Brightness Sun altitude
Rises 18:58:32 0° 342° (NNW) 2,504 6.9 -25.1°
Reaches altitude 10° 19:00:42 10° 334° (NNW) 1,622 6.0 -25.5°
Enters shadow 19:03:29 35° 288° (WNW) 761 4.5 -26.0°
